Theta_e
308 308 308 308 308 307 306 306 306 306 305 304 304 304 303 303 303 303 303 303 302 302 301 301 301 301 301 301 301 301 300 299 299 299 299 298 298 297 297 297 297 297 297 297 297 297 297 297 297 297 297 297 296 296 295 295 294 294 294 294 293 292 292 291 291 291 291 291 291
308 308 309 309 308 307 306 306 306 305 305 304 304 304 304 303 303 303 302 302 302 302 302 301 301 302 301 301 301 300 299 298 298 298 298 298 297 297 297 297 297 297 296 296 297 297 297 297 297 297 297 297 297 296 295 295 294 294 294 293 293 293 292 292 291 291 291 291 291
308 308 308 307 306 305 305 304 304 304 304 304 304 304 304 304 303 303 302 302 302 302 302 301 301 301 301 300 300 299 298 297 297 297 297 297 297 297 297 296 296 296 296 296 296 296 297 297 297 297 297 297 296 296 295 295 295 294 294 293 293 293 292 292 292 292 291 291 291
307 306 306 305 304 304 304 304 304 304 304 304 304 304 304 304 303 303 302 302 301 301 301 301 301 300 300 299 299 298 298 298 297 297 297 297 297 297 297 296 296 296 296 296 296 296 296 297 297 297 297 296 296 296 296 295 295 294 294 293 293 293 292 292 292 292 292 291 291
306 305 305 304 304 304 304 304 304 304 304 304 304 304 303 303 303 302 302 301 301 300 300 300 300 299 299 299 298 297 298 298 299 298 297 296 296 296 296 296 296 296 296 295 296 295 296 297 297 297 296 296 296 296 295 295 294 294 293 294 293 293 292 292 292 292 292 292 291
305 305 305 305 305 305 305 305 304 304 304 304 304 303 303 302 302 301 301 300 300 300 299 299 299 299 298 298 297 297 297 297 298 297 296 295 296 296 296 296 296 295 295 295 296 295 295 295 296 296 296 296 295 295 295 295 294 293 292 293 293 293 292 292 292 292 292 291 290
305 305 305 305 305 305 305 305 305 304 304 304 303 302 302 302 301 301 300 300 299 299 299 299 299 298 298 297 297 297 297 297 297 296 296 295 296 296 295 295 295 295 295 295 296 295 295 295 296 296 296 296 296 295 295 294 294 293 292 292 292 293 292 291 292 292 291 290 290
306 306 305 305 305 305 305 305 305 304 304 303 303 302 302 301 301 300 300 300 299 300 299 299 299 298 298 298 297 296 296 296 296 296 296 296 296 295 295 294 295 295 295 295 295 295 295 295 296 295 295 296 295 295 294 293 293 292 291 291 292 292 292 291 291 291 291 291 290
306 305 305 305 305 305 305 305 304 304 303 303 302 302 301 301 301 300 300 300 300 301 300 300 300 300 299 298 297 296 295 295 295 295 295 295 295 295 294 294 294 294 294 294 295 294 294 295 295 295 295 295 295 294 293 292 292 291 291 291 291 291 292 291 291 291 291 291 290
305 305 305 305 305 305 305 304 304 303 303 302 302 302 302 302 301 301 301 301 301 301 300 300 301 300 299 298 296 295 295 295 294 294 295 295 295 294 294 294 294 294 294 294 294 294 294 294 294 294 294 294 294 293 292 292 291 291 291 291 291 291 291 291 291 292 292 292 291
304 304 304 304 304 304 304 304 303 303 303 302 302 302 302 303 302 301 301 302 301 301 300 300 300 299 298 296 295 295 294 294 294 294 294 294 295 294 294 294 294 293 293 293 294 294 293 293 293 293 293 293 293 293 293 292 292 291 291 291 291 291 291 291 291 292 292 292 292
304 304 304 304 304 304 304 303 303 303 302 302 302 302 302 302 302 302 302 301 300 300 300 300 298 297 296 295 294 295 295 294 294 294 294 294 294 294 293 294 293 293 293 293 293 293 293 292 292 292 292 292 293 293 293 293 292 292 291 291 291 291 291 291 291 292 292 292 292
304 304 304 304 304 304 303 303 303 303 302 302 302 302 301 301 301 301 300 299 299 298 298 297 297 295 295 294 294 294 294 294 294 294 294 293 293 293 293 293 293 293 293 292 292 292 292 292 292 292 291 291 292 292 292 293 292 292 291 291 291 291 291 291 292 292 292 292 293
305 304 304 304 304 304 303 303 303 302 302 302 301 301 300 300 300 299 298 297 297 296 296 296 296 295 295 294 294 294 294 293 293 293 293 293 293 293 293 292 293 292 292 292 292 292 292 292 292 291 291 291 291 292 292 292 292 292 291 291 291 291 291 291 292 292 292 292 292
304 304 304 304 304 304 303 303 302 302 301 301 300 299 299 298 298 298 297 296 295 295 295 295 295 295 295 294 294 293 293 293 293 293 293 293 293 293 292 292 292 292 292 292 292 292 292 292 292 291 291 291 291 292 292 292 292 292 291 291 291 291 291 291 292 292 292 291 291
304 304 304 304 304 303 303 302 301 301 300 299 298 298 297 297 297 296 296 295 295 294 294 294 294 294 294 295 294 293 293 293 293 293 292 292 292 293 293 292 292 292 292 292 292 292 292 292 292 292 292 292 292 292 292 292 292 292 291 291 291 291 291 292 292 292 292 291 291
304 304 303 303 302 302 301 301 300 299 298 297 297 296 296 296 296 296 296 295 294 294 293 293 294 293 294 294 294 293 293 292 292 292 292 292 292 293 293 293 293 293 292 292 292 292 292 292 292 292 292 292 292 292 292 292 292 292 292 292 291 292 292 293 293 292 292 292 292
303 302 302 301 301 300 299 299 298 297 297 296 296 296 295 295 295 295 295 295 294 293 293 293 293 293 293 293 293 294 293 293 293 293 293 293 293 293 293 292 293 293 292 292 292 292 292 292 292 292 292 292 292 292 292 292 292 292 292 292 292 292 292 293 293 293 292 292 293
301 301 300 299 299 298 298 298 297 296 296 296 295 295 295 295 294 294 294 294 294 293 293 293 293 293 293 293 293 294 294 294 293 293 293 293 293 293 293 293 292 293 292 292 292 292 292 292 292 292 292 292 292 292 292 292 292 292 293 293 293 293 294 294 294 294 293 293 292
300 300 299 299 298 298 297 297 296 296 295 295 295 295 294 294 294 294 293 293 294 293 293 293 293 293 293 293 293 294 294 294 293 293 293 293 293 293 293 293 293 292 293 292 292 292 292 292 292 293 293 293 292 292 292 292 292 293 293 294 294 294 295 295 295 295 294 293 292
299 299 299 298 298 297 297 296 296 295 295 295 294 294 294 294 294 293 293 293 293 293 293 293 293 293 293 293 293 294 294 295 293 293 293 293 293 294 294 293 293 293 292 292 293 293 293 293 293 293 293 293 293 293 293 293 293 293 294 294 294 294 295 296 295 295 295 294 293
299 299 298 298 297 297 296 296 295 295 295 294 294 294 294 293 293 293 293 294 294 294 294 294 294 293 294 294 294 293 294 294 294 293 293 293 294 294 294 294 293 293 292 292 292 293 293 293 293 293 293 293 293 294 295 295 295 294 294 294 294 295 296 296 296 296 296 296 295
298 298 297 297 297 297 297 295 295 294 294 294 294 293 293 293 293 294 294 294 295 295 295 295 295 294 294 294 294 294 294 294 293 294 294 293 293 293 293 293 293 293 292 292 293 293 293 293 293 293 293 293 294 294 295 296 295 294 293 293 294 295 296 297 297 297 297 296 296
297 297 297 296 296 296 295 295 294 294 294 294 294 294 294 294 294 294 295 295 295 295 295 295 295 295 295 295 295 294 294 293 293 293 293 293 293 293 293 293 292 292 293 293 295 295 295 294 293 293 294 294 294 294 295 295 295 294 294 294 294 294 295 295 296 296 296 297 296
296 296 296 296 295 295 295 294 294 294 294 294 294 294 294 294 294 295 295 295 295 295 295 295 295 295 295 295 294 294 293 293 293 293 293 293 293 293 292 292 292 293 294 296 299 300 300 298 296 294 294 294 294 294 294 294 294 294 294 295 295 295 295 294 295 294 294 295 295
296 296 296 295 295 295 294 294 294 293 293 293 293 293 294 294 295 295 294 295 295 294 295 295 295 295 295 294 294 293 293 293 293 293 292 292 292 292 292 292 293 293 295 299 301 301 301 300 299 298 296 293 294 294 294 294 295 295 295 296 296 295 295 294 294 294 294 294 294
296 296 295 295 295 294 294 294 294 294 293 293 293 293 294 294 294 294 294 294 294 294 294 294 294 296 296 294 293 293 293 293 292 293 292 292 292 292 292 292 293 294 296 300 301 301 301 301 300 300 298 295 295 294 294 294 294 295 295 295 295 295 294 294 294 294 295 295 296
295 295 295 295 295 294 294 294 294 294 294 294 294 294 294 294 294 294 294 293 293 293 293 293 294 295 295 293 293 293 293 292 293 293 292 292 293 292 292 292 293 295 298 301 302 301 301 300 301 301 300 298 295 294 294 294 294 294 294 294 294 294 294 294 294 295 296 296 296
295 295 295 294 294 294 294 294 294 294 294 294 294 294 294 294 294 294 293 293 293 293 293 293 294 294 294 293 293 293 293 293 293 293 293 293 293 293 293 293 293 296 299 302 301 301 300 300 300 301 300 300 297 295 294 294 294 294 294 293 293 293 294 296 296 296 296 295 295
295 295 294 294 294 294 294 294 294 294 294 294 294 294 294 293 293 293 293 293 293 293 294 294 294 294 293 293 293 293 293 293 293 293 293 293 292 292 293 294 293 295 298 301 301 300 300 300 300 300 300 300 298 295 294 294 293 293 293 293 293 294 296 296 296 295 294 293 294
294 294 294 294 294 294 294 294 294 294 295 295 294 294 293 293 293 293 292 292 293 294 295 295 294 294 294 294 294 294 294 294 293 293 293 292 294 294 293 293 293 295 298 301 301 300 300 300 300 300 300 300 298 295 293 293 293 293 292 293 293 295 296 295 293 292 291 292 292
294 293 293 293 293 293 294 294 294 294 295 294 294 294 293 293 293 293 293 293 294 294 295 295 294 294 294 294 294 294 294 294 294 293 293 293 293 293 292 293 292 295 298 301 300 300 299 299 299 300 300 300 299 296 293 292 292 292 293 293 294 296 295 293 292 291 292 292 292
293 293 293 293 293 293 294 294 294 294 294 294 294 294 294 293 293 293 293 294 294 294 294 294 294 294 294 294 294 294 294 294 294 295 296 295 293 293 292 293 292 295 299 300 300 300 299 299 299 299 300 300 298 295 292 292 292 292 292 293 295 295 295 293 292 291 292 292 292
294 293 293 293 293 294 294 294 294 294 294 294 294 294 294 293 293 293 294 294 294 294 294 294 294 294 294 294 294 293 294 295 294 294 293 293 293 293 292 291 292 296 300 301 300 300 299 299 299 299 299 300 297 294 292 291 291 291 292 292 294 294 294 293 292 292 292 293 293
294 294 293 293 294 294 294 294 295 295 294 294 294 294 293 293 293 293 294 296 296 295 294 294 294 294 294 294 293 294 294 294 292 292 292 292 292 292 292 291 292 296 300 301 301 300 300 299 299 299 299 298 295 292 291 291 291 291 292 291 292 293 293 292 292 292 293 294 295
294 294 294 294 294 294 294 294 295 295 294 294 294 294 293 294 294 294 295 297 296 295 294 294 294 294 293 293 293 294 294 292 292 292 292 292 292 291 291 291 292 296 299 301 300 300 299 299 299 299 298 296 293 291 291 291 291 291 291 291 291 292 293 292 292 293 294 296 296
295 295 295 294 294 294 295 295 295 295 295 294 294 294 294 294 294 294 296 297 295 294 294 294 293 293 293 293 293 293 294 293 292 292 292 293 292 291 290 290 291 294 298 300 300 300 299 299 299 298 297 294 291 290 291 291 290 291 291 290 291 292 293 292 293 294 296 297 298
295 295 295 295 295 295 295 295 295 295 294 294 294 294 294 294 294 295 296 298 295 294 293 293 293 293 293 293 293 293 293 293 294 293 292 292 292 291 290 290 290 292 296 299 299 300 299 299 299 298 296 293 291 290 290 290 290 290 290 290 290 291 292 292 293 294 296 298 300
296 296 296 296 295 295 295 295 295 295 294 294 294 294 294 294 294 295 296 298 295 294 294 293 293 293 294 295 294 293 293 294 294 294 293 291 292 293 293 290 290 292 294 298 299 299 299 299 299 298 297 294 291 290 290 290 289 289 290 290 290 290 291 291 292 293 295 297 301
296 296 296 296 296 296 296 296 295 295 294 294 294 294 294 295 295 296 297 297 295 294 294 294 294 294 295 297 295 294 293 293 293 293 293 293 293 295 296 292 290 291 294 297 298 299 299 299 298 298 297 294 291 290 290 289 289 289 289 289 290 290 290 290 291 292 294 296 299
297 296 296 296 296 296 296 296 296 295 295 295 294 295 295 296 296 296 296 295 295 294 294 294 294 294 296 298 295 293 292 292 292 293 293 295 294 296 296 292 290 290 292 296 298 299 299 299 298 298 297 295 291 290 290 290 289 289 289 289 290 290 290 291 292 293 295 296 296
Wind_Speed
9 8 7 7 7 6 6 6 6 6 6 6 6 6 6 6 6 5 4 4 4 4 4 4 4 4 5 8 9 8 6 4 3 3 3 3 3 3 3 3 3 3 3 3 2 2 2 2 2 2 1 1 1 1 1 2 2 2 2 2 2 2 2 2 2 2 2 2 2
10 9 8 8 8 7 6 6 6 6 6 6 6 6 6 6 6 5 5 5 4 4 4 4 4 5 6 8 9 7 5 3 3 3 3 3 3 3 3 3 3 3 3 2 2 1 1 1 1 1 1 1 1 1 1 1 1 1 2 2 2 2 2 2 2 2 2 2 2
9 9 8 8 8 7 6 6 7 7 7 6 6 6 6 5 5 5 5 5 5 5 4 4 5 6 8 8 7 6 5 3 3 2 2 2 3 3 3 3 3 3 2 2 2 1 1 1 2 2 1 1 1 1 1 1 1 1 1 2 2 2 2 2 2 2 2 2 2
10 9 9 9 10 9 8 7 8 9 9 7 7 7 6 5 5 5 5 5 5 5 5 5 6 7 8 8 7 5 4 3 3 3 2 2 2 2 2 2 2 2 2 2 2 2 2 2 2 1 1 1 1 1 1 2 2 2 1 1 1 2 2 2 2 2 2 2 2
10 9 9 9 10 10 9 9 10 10 9 7 7 6 6 5 5 5 5 5 5 4 5 6 7 7 7 8 7 5 4 3 4 3 3 3 2 2 2 2 2 2 2 2 2 1 1 1 1 1 1 1 1 2 2 2 2 2 2 1 1 1 1 1 1 1 1 2 1
10 10 10 10 11 11 10 10 11 10 9 7 7 7 6 5 5 5 6 5 5 5 5 6 7 7 7 7 6 5 3 3 3 3 3 3 2 2 2 1 2 2 2 2 2 1 1 1 1 1 1 1 1 2 2 3 2 2 2 2 1 1 1 1 1 1 1 2 2
11 11 11 11 11 11 10 10 10 9 8 8 8 8 8 7 7 7 7 6 5 5 5 5 6 6 6 6 5 3 3 2 2 3 3 3 3 2 1 1 1 2 2 2 1 1 1 1 1 1 1 2 2 2 2 2 2 1 1 1 1 1 0 0 1 1 1 1 2
11 11 11 11 11 11 11 10 9 8 8 7 8 9 9 9 9 9 8 6 5 4 4 4 5 5 5 4 3 3 2 2 2 3 3 3 2 2 1 1 2 2 1 1 1 1 1 2 2 2 2 2 2 1 1 1 1 1 1 0 1 1 1 0 1 1 1 0 1
10 10 10 10 10 10 10 10 9 8 8 8 9 9 9 10 10 9 8 7 6 5 4 4 5 5 5 4 3 3 3 3 3 3 2 2 2 2 1 1 1 1 1 1 1 2 2 2 2 2 2 1 1 1 1 1 1 0 0 0 1 1 1 1 0 1 1 1 1
9 9 9 9 9 9 9 9 8 9 9 9 9 9 9 10 9 8 7 6 6 6 5 5 5 5 5 5 4 3 3 3 3 3 2 2 2 2 2 1 1 1 1 1 2 2 3 2 2 2 1 1 1 1 1 1 1 0 0 0 1 1 2 2 1 1 1 2 2
9 9 9 9 9 9 9 8 8 8 8 9 9 8 8 9 8 7 7 7 7 7 6 6 6 6 6 5 4 4 3 3 3 3 3 2 2 2 2 2 1 1 1 2 2 3 3 2 2 1 1 1 0 1 1 1 1 1 1 1 1 1 2 2 2 2 2 2 3
10 9 9 9 9 9 9 8 7 7 8 8 8 7 7 7 7 8 8 8 8 7 7 7 7 7 6 4 4 4 4 3 3 3 3 2 2 2 2 2 1 1 1 2 2 2 2 2 1 1 1 1 1 1 1 1 1 1 1 1 1 1 2 3 3 3 2 3 3
10 10 9 9 10 9 9 8 7 7 7 7 7 6 6 6 7 8 8 8 8 8 7 7 7 6 5 4 4 4 3 3 3 3 2 2 2 2 1 1 1 1 2 2 2 2 2 1 0 1 1 2 1 1 1 1 1 1 1 1 1 2 2 3 4 3 2 2 3
10 10 10 10 10 9 8 8 7 6 7 7 7 6 6 6 7 7 7 7 7 7 6 6 5 4 4 4 4 4 3 3 2 2 2 2 2 2 2 1 1 1 1 1 2 2 2 1 1 1 1 1 2 2 2 2 2 2 2 2 2 2 3 4 4 3 2 1 1
10 10 10 10 9 8 8 7 6 6 7 7 6 6 6 6 6 6 6 6 6 6 5 5 4 4 4 4 4 3 3 2 2 2 2 1 2 2 2 2 1 1 1 1 1 1 2 2 1 1 1 1 1 2 2 3 3 3 2 2 2 3 3 4 4 3 2 1 1
10 9 9 9 8 8 7 7 6 6 7 7 6 6 6 6 6 6 6 6 5 5 5 5 4 4 4 4 4 3 3 2 2 2 1 1 2 2 2 2 2 2 2 2 1 1 2 2 1 1 1 1 1 1 2 3 3 3 3 3 3 3 3 4 4 3 2 1 1
9 9 9 8 8 8 8 7 6 6 7 7 6 6 6 5 5 6 6 6 5 5 5 5 4 3 3 3 3 3 2 2 2 2 1 1 2 2 2 2 2 2 2 2 1 1 1 1 1 1 1 1 1 1 2 2 3 3 3 4 4 4 4 4 4 3 3 1 0
8 8 8 8 8 8 8 7 7 7 7 7 7 6 6 6 6 6 6 6 5 5 5 5 4 3 3 3 2 2 2 2 2 1 1 1 1 2 2 2 2 2 1 1 1 0 0 1 1 1 0 1 1 1 2 3 3 4 4 4 4 4 5 5 5 4 3 2 1
7 7 7 7 7 7 8 8 8 7 7 7 7 6 6 6 6 6 5 5 5 5 6 5 4 3 3 3 2 2 2 1 2 1 1 1 1 1 1 1 1 1 1 1 1 0 0 1 1 1 1 1 1 2 2 3 4 4 5 5 5 5 5 5 4 4 3 2 2
7 7 7 7 7 7 8 8 8 7 7 7 7 6 6 6 6 6 6 5 5 5 5 5 5 4 3 3 3 2 2 1 1 1 1 1 1 1 1 1 1 1 1 1 0 0 0 1 1 1 1 1 2 2 3 3 4 4 5 4 4 4 4 4 4 3 2 2 2
6 6 7 7 7 7 7 7 7 7 7 6 6 6 6 6 6 6 6 6 5 5 5 5 5 4 4 4 4 3 2 2 1 1 1 1 1 1 1 1 1 1 1 0 0 0 1 1 1 1 1 1 2 3 4 4 5 5 5 4 3 3 3 4 3 2 1 2 2
6 6 6 7 7 7 7 7 7 7 7 6 6 6 6 6 6 6 6 5 5 5 4 4 5 5 4 4 4 3 3 2 2 2 1 1 1 1 1 1 1 1 0 0 0 1 0 1 1 2 2 2 3 4 5 5 5 4 4 4 4 4 4 3 1 0 1 1 1
6 6 6 6 7 7 7 7 7 7 7 6 6 6 6 6 6 6 5 5 4 4 4 3 3 4 4 4 3 3 3 2 2 2 2 1 1 1 0 1 1 0 0 1 1 0 1 2 2 2 2 2 4 4 5 4 4 3 3 3 3 3 2 1 0 1 1 1 1
6 6 6 6 7 7 7 7 7 7 7 6 6 6 6 6 6 6 5 5 4 4 4 3 3 3 3 3 3 2 2 2 2 2 1 1 1 1 1 1 1 1 2 2 2 1 2 2 1 1 2 2 3 4 5 5 4 4 4 3 3 2 1 1 1 0 0 1 2
7 7 6 6 7 7 7 7 7 7 7 6 6 6 6 6 6 5 5 5 4 4 4 4 3 3 2 2 2 2 2 2 1 1 1 1 1 1 1 1 1 2 2 3 4 4 3 3 2 1 1 2 3 3 4 4 4 4 3 3 3 2 2 2 2 1 1 2 2
7 7 7 7 7 7 7 7 7 7 6 6 6 6 5 5 5 5 5 5 4 4 4 4 3 3 2 2 2 2 2 1 1 1 0 0 0 0 0 0 1 1 2 3 4 4 4 3 3 3 2 2 2 3 3 4 4 3 3 3 3 3 2 2 2 3 3 3 4
7 7 7 7 7 7 7 7 7 6 6 6 6 6 5 5 5 5 5 5 4 4 3 3 3 3 3 2 2 2 1 1 1 1 1 1 1 1 1 1 1 1 2 4 4 4 3 3 4 4 3 2 2 2 3 3 3 3 3 3 3 3 2 2 3 3 4 4 4
7 7 7 7 7 7 7 7 7 6 6 6 6 6 5 5 6 5 5 4 4 3 3 2 3 3 2 2 2 1 2 2 2 2 2 1 1 0 1 1 2 2 3 4 4 4 3 3 4 5 5 4 2 2 1 2 2 2 2 3 3 3 3 3 3 3 3 3 2
7 7 7 7 7 7 7 7 7 7 7 6 6 6 6 6 6 5 5 5 4 3 3 2 2 2 2 2 1 2 2 2 3 3 2 2 2 2 2 2 2 3 3 4 3 3 3 3 4 6 6 5 2 1 0 1 1 2 2 2 3 4 4 4 3 2 2 3 3
7 7 7 7 7 7 7 7 7 7 7 6 6 6 6 5 5 5 5 5 4 3 3 3 2 2 2 2 2 2 2 3 3 3 3 3 3 2 2 2 2 2 2 3 3 3 3 4 5 6 6 6 3 1 0 1 1 2 2 3 4 5 5 3 2 2 2 2 3
6 6 7 7 7 7 7 7 7 7 7 6 6 6 6 6 5 5 5 4 4 4 4 4 3 3 3 3 3 3 3 3 3 3 4 4 3 3 2 1 1 1 2 3 3 3 3 4 5 6 7 7 4 2 1 1 2 2 3 4 5 5 4 2 1 1 1 2 2
7 7 7 7 7 7 7 7 7 7 7 7 7 6 6 6 5 4 4 4 4 4 4 4 4 4 4 3 3 3 3 3 3 4 4 4 3 2 1 1 1 1 2 3 3 3 3 4 5 6 7 7 4 2 1 2 2 3 4 5 6 5 3 1 1 1 2 2 2
7 7 7 7 7 7 7 7 7 7 7 7 7 7 6 5 4 4 4 4 4 4 4 4 5 4 4 4 3 3 3 3 3 3 3 3 3 2 1 1 1 2 3 4 4 4 4 4 5 6 6 7 4 3 2 2 3 4 4 5 5 4 3 2 2 2 2 3 3
8 8 8 8 8 8 7 7 7 7 7 7 7 7 6 5 4 4 4 3 3 3 4 4 4 4 4 4 3 3 2 2 3 3 3 2 2 2 1 1 1 2 4 5 5 5 5 5 5 6 6 6 4 2 2 3 3 4 4 5 4 3 2 2 2 3 3 4 4
9 9 8 8 8 8 8 8 7 7 7 7 7 7 6 5 5 4 4 4 3 3 3 3 3 3 3 2 2 2 2 2 2 2 2 2 2 2 1 1 2 3 5 6 6 5 5 5 5 5 6 5 3 2 2 3 4 4 5 5 4 3 2 2 3 3 4 4 4
9 9 9 9 8 8 8 8 8 8 8 8 7 6 6 5 4 4 4 4 4 3 3 3 2 2 2 2 2 2 2 2 2 2 2 2 2 2 1 1 2 3 5 5 6 5 5 5 5 5 5 3 2 2 2 3 4 4 5 5 4 3 3 2 3 3 3 3 3
10 10 9 9 9 9 9 9 8 8 8 8 7 6 6 5 5 4 4 4 3 3 3 3 2 2 2 2 2 2 2 3 3 3 2 2 2 2 2 1 2 3 4 4 5 5 5 5 5 5 4 2 1 2 2 3 3 4 4 4 3 3 2 2 2 2 3 3 4
9 10 9 9 9 9 9 9 9 8 8 7 6 6 6 5 5 4 4 4 4 3 3 3 3 3 3 3 3 3 3 3 3 3 3 2 2 2 2 2 1 2 3 4 5 5 5 5 5 5 3 1 1 2 2 3 3 3 3 3 2 2 2 2 2 2 3 4 6
9 9 9 9 9 9 9 9 9 9 8 7 6 6 6 5 4 4 4 4 4 3 3 3 3 3 3 4 3 3 3 3 3 3 3 2 3 3 3 2 1 1 2 4 5 6 6 5 5 5 4 2 2 2 2 2 2 3 3 2 2 2 2 2 2 3 4 5 8
9 9 9 9 9 9 9 9 9 8 7 7 6 6 6 5 5 4 4 4 3 3 3 3 3 3 4 4 4 3 3 2 2 2 2 2 3 3 3 3 2 2 3 5 6 6 6 6 6 6 4 2 1 1 1 2 2 3 3 2 2 2 2 2 3 3 3 4 6
9 9 9 9 9 9 9 9 9 8 7 7 7 6 6 6 5 4 4 3 3 3 3 3 3 3 4 4 3 3 3 2 2 2 2 2 2 3 3 3 3 2 3 5 6 7 7 6 6 6 5 2 1 1 1 1 2 3 3 3 2 2 2 2 2 2 2 3 3
Wind_Direction
121 121 122 124 123 121 118 115 114 113 112 113 113 114 115 116 114 113 111 107 107 108 110 114 120 116 109 105 107 110 115 125 123 124 124 121 114 108 104 102 101 100 96 91 86 79 73 76 89 94 92 79 49 43 52 60 38 10 351 348 6 28 36 29 10 4 11 26 46
123 122 121 121 120 117 114 112 111 110 109 108 109 110 112 112 113 114 115 116 118 121 123 127 126 120 115 112 115 120 128 142 136 131 126 118 108 98 92 90 90 90 89 87 83 76 69 66 76 82 85 86 69 65 74 87 69 24 351 347 4 26 36 29 12 14 20 25 28
120 118 117 118 119 118 117 116 115 114 113 111 113 114 114 115 118 121 123 126 128 131 134 137 133 127 122 120 123 129 136 141 131 121 113 105 95 88 83 80 82 84 84 82 75 66 57 52 57 59 57 50 39 51 74 93 83 56 15 1 13 25 28 20 13 19 27 28 22
113 113 114 116 118 119 120 120 120 119 119 119 120 120 120 122 124 125 127 128 133 139 144 145 137 130 127 126 128 131 132 129 124 118 110 103 97 94 93 92 92 93 92 85 73 60 50 48 52 52 48 39 32 38 51 63 60 53 37 22 28 30 27 14 14 23 30 28 17
110 112 114 116 118 119 120 122 124 125 126 126 126 126 125 125 126 127 127 130 137 146 148 142 134 130 129 128 129 129 128 132 133 129 121 113 109 107 108 110 113 111 105 95 82 67 54 50 54 56 54 52 48 48 50 51 47 40 29 18 24 32 34 23 19 27 33 26 5
115 116 117 119 121 122 124 126 128 129 129 129 129 129 129 129 130 129 129 130 134 138 136 128 124 124 125 125 127 128 132 139 137 133 127 121 116 113 109 110 110 105 100 94 89 82 74 66 59 54 57 62 59 56 56 57 51 40 23 1 351 8 45 47 39 40 37 19 353
121 122 124 125 127 128 129 130 129 129 128 128 129 131 131 131 130 129 128 127 128 126 121 114 113 115 118 119 123 128 134 137 131 127 125 122 118 113 104 88 80 81 82 82 80 82 82 82 68 53 47 52 51 50 53 65 70 61 33 348 330 336 23 99 89 72 52 15 345
123 125 127 128 129 129 129 130 129 128 128 129 131 131 131 130 129 128 127 125 123 118 110 102 103 104 107 112 123 134 140 135 125 119 115 114 113 109 96 74 66 68 75 81 72 64 61 67 62 53 46 45 42 34 34 54 78 88 86 321 309 311 309 194 127 115 103 48 328
121 122 123 124 125 126 126 126 126 126 127 127 128 129 130 130 129 128 127 126 122 116 106 98 98 101 107 122 142 151 148 136 126 118 110 106 109 106 99 82 76 79 95 102 84 67 58 57 55 52 51 51 37 14 355 3 30 60 109 206 288 296 295 276 174 150 148 156 252
116 116 117 117 118 118 118 118 119 120 121 123 125 127 129 131 130 130 129 127 120 111 104 102 107 117 132 154 160 156 145 133 128 123 120 117 123 128 132 133 149 160 148 116 90 73 62 56 47 39 39 50 28 332 315 324 330 311 259 205 256 281 287 287 257 201 180 182 211
110 111 113 113 113 113 112 110 112 114 116 118 121 124 126 129 129 127 124 120 114 111 112 118 131 144 156 165 158 147 137 131 131 132 134 140 150 159 162 161 167 163 137 108 92 81 72 62 45 18 352 328 276 269 272 276 266 255 244 225 234 258 275 281 271 246 214 199 208
107 108 109 109 110 108 107 107 108 110 112 115 117 120 122 126 125 123 120 116 116 120 129 142 153 159 162 157 146 139 135 136 139 142 147 155 165 169 164 154 145 125 103 97 95 92 89 82 61 343 307 292 269 253 252 259 256 252 251 253 254 265 273 276 270 258 232 207 209
109 109 109 109 108 107 105 105 106 108 111 115 118 121 124 125 124 123 122 122 126 134 144 154 157 156 149 140 137 136 139 143 146 148 151 158 161 154 138 117 103 92 86 88 95 101 104 109 124 283 288 293 291 284 278 280 282 283 287 293 296 289 281 276 271 264 246 215 210
112 113 113 113 111 110 108 109 110 113 117 121 124 126 127 125 125 125 125 128 132 138 143 147 144 140 135 133 133 135 138 142 143 144 146 152 144 130 115 103 99 97 96 97 104 115 126 148 187 239 277 299 309 315 321 323 323 320 314 307 299 289 282 278 276 275 271 252 232
116 116 117 117 116 116 116 117 119 123 125 126 127 126 124 122 123 123 123 125 127 129 131 131 130 129 129 131 132 132 133 134 136 141 147 151 139 130 123 122 126 128 131 135 142 149 160 176 193 214 254 299 317 326 332 333 328 323 314 300 287 280 278 277 281 284 289 295 321
119 120 121 121 121 122 123 124 125 126 126 125 124 121 119 119 120 121 122 122 123 123 123 124 124 125 127 131 132 132 132 135 142 149 156 156 148 143 142 148 156 160 161 164 169 175 180 184 189 196 215 262 304 320 323 320 316 308 301 290 278 271 270 272 275 277 279 284 329
122 124 125 125 125 126 125 125 125 125 125 123 121 120 120 121 123 125 127 127 127 125 124 123 122 122 125 129 131 133 136 142 149 156 160 164 159 156 157 163 168 169 168 166 171 180 197 204 199 197 204 225 254 278 284 286 285 282 278 273 266 260 258 259 260 259 255 243 210
124 126 126 126 125 124 123 122 122 123 123 123 122 123 125 127 129 130 131 132 131 129 128 125 124 124 126 129 132 135 141 147 154 161 164 169 164 158 155 158 160 158 151 144 137 120 325 319 317 308 279 250 244 248 251 255 256 256 255 254 250 247 244 245 244 240 228 192 168
123 123 123 121 120 119 118 119 120 122 123 124 126 127 129 131 132 132 132 134 134 133 130 130 130 131 133 137 140 145 151 155 159 162 165 162 146 135 129 129 129 127 123 117 106 60 344 321 313 303 294 278 263 256 251 249 248 247 246 244 242 240 239 240 239 231 208 167 155
120 120 119 118 117 117 118 120 122 124 125 127 128 130 131 132 131 131 132 136 138 136 135 135 138 141 146 151 154 158 162 160 158 156 151 137 123 117 114 111 103 97 96 91 88 56 280 274 273 277 281 282 280 274 267 261 256 253 249 246 244 245 247 250 248 234 199 156 147
120 120 120 119 119 120 121 123 124 126 126 127 129 129 130 130 131 133 136 140 141 141 141 142 147 153 158 161 162 162 161 153 145 136 124 111 111 115 117 114 97 77 58 54 40 256 253 252 266 293 311 310 293 280 270 262 256 254 253 251 251 253 255 258 254 237 177 136 132
123 122 123 123 123 124 125 126 127 127 127 128 130 131 131 132 134 137 140 144 145 146 148 150 155 158 161 163 162 159 154 145 139 131 120 107 104 103 103 100 89 67 27 334 275 264 279 16 21 10 351 324 297 281 271 264 257 254 253 253 252 253 252 253 248 164 113 113 125
126 126 126 126 127 128 129 130 130 130 131 132 134 136 137 138 140 142 145 148 150 152 152 152 155 156 156 156 155 151 145 140 140 140 136 129 123 117 109 106 113 134 211 234 232 84 58 50 34 13 345 318 300 292 289 290 288 283 275 269 264 261 262 273 68 94 114 141 175
129 130 130 130 131 132 132 133 133 134 136 139 141 143 144 144 145 146 148 152 153 153 151 148 146 144 143 143 141 137 133 132 135 140 144 144 155 167 174 159 164 182 197 204 194 158 115 88 62 1 316 301 299 301 303 307 306 304 299 296 299 308 324 354 19 56 174 202 208
133 133 134 134 135 135 136 137 138 140 142 144 146 148 148 147 147 148 151 154 155 154 151 146 139 133 128 127 123 119 113 111 110 112 123 143 168 173 174 169 178 186 196 208 212 196 170 149 166 205 251 270 285 292 297 299 301 306 315 329 338 342 340 335 328 312 283 257 241
137 138 138 138 138 138 139 141 142 143 145 148 150 150 151 149 148 150 152 156 158 157 153 146 140 135 130 121 114 107 101 96 95 89 80 46 27 43 67 141 180 196 209 219 214 201 190 196 215 227 233 241 261 275 284 290 301 315 331 341 339 334 324 314 306 295 282 268 255
141 141 142 141 140 141 143 144 144 146 148 151 153 153 153 152 151 152 155 159 161 158 152 144 140 137 132 121 119 122 124 127 137 148 148 120 58 21 360 331 283 244 234 232 215 203 201 222 247 254 253 238 244 257 271 286 306 321 330 328 317 307 295 284 277 272 269 266 260
145 145 145 143 144 145 146 146 147 149 152 155 157 158 157 154 155 156 159 161 159 153 146 139 134 128 122 115 128 151 166 166 166 162 155 135 132 155 252 264 255 247 239 231 213 206 214 242 264 272 272 264 253 251 267 290 307 313 313 305 296 288 279 270 264 265 271 285 296
148 147 147 147 148 149 149 150 152 154 157 160 161 161 159 158 158 159 160 159 155 151 145 139 126 115 112 125 157 185 192 183 170 159 152 150 167 192 214 230 240 241 234 216 199 202 224 254 271 278 279 279 276 273 286 298 301 299 295 289 283 278 274 269 273 288 314 333 336
150 150 150 151 151 152 154 156 157 159 160 162 163 162 162 161 162 162 162 160 158 155 152 143 131 130 140 162 181 196 201 194 172 160 157 166 184 199 213 226 237 235 216 191 190 204 232 260 273 278 280 281 284 285 275 276 281 279 277 275 272 269 269 270 291 325 341 337 328
154 154 155 155 155 157 159 161 161 161 162 163 164 164 164 165 166 167 166 165 163 159 154 146 146 154 167 181 188 195 198 193 173 164 164 173 185 195 206 223 247 245 219 200 199 212 238 262 274 278 280 281 284 283 266 261 264 264 263 262 261 261 260 259 275 310 308 303 300
158 158 159 160 160 162 163 165 165 164 163 164 165 167 168 169 170 171 170 168 163 159 157 156 161 170 181 191 195 198 197 189 175 167 164 166 172 179 188 207 236 239 227 212 208 218 239 259 270 276 279 282 288 289 275 266 262 259 256 254 253 252 248 229 223 238 255 264 265
162 163 164 165 165 166 167 169 168 166 165 166 168 169 171 172 171 171 171 169 164 162 163 166 171 177 185 194 200 202 196 181 166 159 156 155 157 160 169 197 227 232 226 215 212 221 236 253 264 273 279 285 294 298 289 274 268 262 257 253 250 244 232 213 216 229 240 247 246
166 168 169 171 170 169 169 171 170 168 167 169 171 172 172 171 170 171 174 174 168 166 167 170 173 178 183 189 192 191 179 158 145 142 142 143 141 142 158 200 230 237 232 222 218 223 234 249 260 270 278 287 296 300 291 280 275 271 267 262 256 247 233 223 227 232 238 242 241
170 171 173 174 173 171 171 172 171 171 171 172 174 174 172 170 170 173 177 178 172 169 169 171 169 171 175 182 176 164 148 138 138 141 142 138 131 137 163 216 245 246 240 228 221 222 229 242 257 268 278 290 298 297 287 280 278 276 274 272 268 260 249 238 237 240 243 247 248
174 174 175 176 175 173 172 172 173 174 175 176 175 174 172 171 172 175 178 178 173 170 169 169 163 163 168 174 163 153 151 155 156 154 148 137 134 142 173 221 253 258 251 234 221 218 224 236 252 267 278 292 300 293 284 280 278 275 274 272 268 260 252 244 245 250 256 262 262
177 177 177 178 177 175 174 174 175 176 178 178 176 172 171 171 173 178 179 176 170 168 169 167 164 168 174 177 173 173 171 167 159 153 148 144 145 156 176 215 250 268 266 247 227 221 223 234 250 264 276 290 288 283 281 280 278 276 274 273 270 268 265 263 270 276 280 283 276
180 179 179 179 179 178 177 176 178 179 180 179 175 172 170 169 173 178 181 176 169 168 169 169 170 176 181 181 180 180 175 164 153 149 151 157 161 166 176 198 229 270 275 261 240 230 228 235 250 261 267 260 257 264 273 278 280 281 281 280 283 297 312 319 311 303 296 288 286
183 182 181 181 181 180 180 179 180 180 179 177 173 171 170 170 175 180 181 176 167 165 167 171 177 182 185 183 180 176 170 157 150 151 157 171 180 182 182 180 196 241 266 263 250 242 236 238 250 259 264 256 246 253 267 280 287 290 290 290 297 311 319 317 308 301 295 289 298
185 184 183 183 183 183 183 183 183 181 177 173 171 171 171 172 176 179 179 172 165 162 165 172 181 187 187 183 173 164 156 151 150 157 166 180 202 205 198 172 177 209 248 258 254 249 243 242 250 257 261 255 237 244 271 288 296 298 297 294 296 300 300 297 294 295 297 299 314
185 185 185 185 186 186 186 186 184 179 174 171 171 171 172 173 175 176 174 168 164 163 166 173 184 188 185 175 159 148 144 153 164 173 177 184 211 216 203 168 174 194 229 249 252 250 247 245 251 257 260 249 226 220 256 292 297 297 293 290 285 280 277 280 287 296 307 321 334